Погода в Каце

Погода в Каце : погода сейчас, прогноз погоды и архив. Всё, что Вы хотите узнать о погоде в Каце!

Поиск расширенной информации на нашем сайте:

Полезная информация: Плитка из резины резиновая плитка.

Другие новости

Новости СМИ2

Главная страница сайта

Новости сайта

03.07.2017

Напоминаем, что на нашем специализированном сайте Метеоцентр.Азия вы можете получить высокодетализированные автоматические прогнозы погоды по пунктам России, СНГ и мира в авиационном формате (включающие направление и скорость ветра, видимость, явления погоды, количество и форму облачности, нижнюю и верхнюю границу облачности).

Рекомендуем: Видеоинтерфейс, интерфейс hdmi мультимедийный: схема распиновки.

Погода в Каце - сегодня

Время (UTC), дата Ветер
(°,м/с) 
Видим.   Явления Облачность Т
(°С)
Тd
(°С)
f(%) Тe
(°С)
Pmin
(гПа)
dP
(гПа)
Po
(мм)
O2
(г/м3)
Тmin Tmax R s Состояние
почвы
21 20.09.17 250 (З) 20000 м  слаб. ливневой дождь  10/10 720 м кучево-дожд. 
[Cb cap]
+6.4 +5.5 94 +5  1017.2  -0.6  720  282           
00 21.09.17 240 (ЮЗ) 20000 м  {ливн. осадки}  10/10 720 м кучево-дожд. 
[Cb cap]
+5.9 +5.1 95 +6  1016.4  -0.9  719  283  +5.8       
03 21.09.17 240 (ЮЗ) 20000 м    6/6 1000 м 
[Cu med, cong]
+7.2 +5.1 86 +7  1014.7  -1.3  718  281           
06 21.09.17 180 (Ю) 20000 м    8/8 800 м кучево-дожд. 
[Cb cap]
+9 +3.7 69 +9  1011  -3.2  716  279           
09 21.09.17 130 (ЮВ) 20000 м    6/6 600 м кучево-дожд. 
[Cb cap]
+9.3 +3.5 67 +9  1007.2  -3.5  713  277           
12 21.09.17 100 (В) 20000 м    10/10 750 м кучево-дожд. 
[Cb cap]
+7.7 +3.3 74 +8  1004.4  -2.9  711  278    +10.1       
18 21.09.17 тихо ()   20000 м  слаб. дождь{ливн. осадки}  10/10 570 м 
[Frnb|Ns]
+5 +4.1 94 +5  1000.3  -1.9  708  279           
21 21.09.17 060 (СВ) 20000 м  слаб. дождь  10/10 480 м 
[Frnb|Ns]
+4.9 +4.1 95 +6  999.4  -0.9  707  279           
00 22.09.17 350 (С) 20000 м  слаб. дождь  10/10 400 м 
[Frnb|Ns]
+4.9 +4.2 95 +6  1000.1  0.6  708  279  +4.8       
03 22.09.17 280 (З) 20000 м  слаб. дождь  10/10 500 м 
[Frnb]
+5.2 +4.3 94 +6  1001.9  1.8  709  280           
06 22.09.17 330 (СЗ) 20000 м  слаб. ливневой дождь  9/9 750 м кучево-дожд. 
[Cb cap]
+6.4 +4.9 90 +7  1003.2  1.5  710  279           
09 22.09.17 310 (СЗ) 20000 м  слаб. ливневой дождь  9/9 800 м кучево-дожд. 
[Cb cap]
+6.3 +5 91 +7  1005.5  2.1  712  279           
12 22.09.17 270 (З) 20000 м  в посл. час ливневой дождь  9/9 840 м кучево-дожд. 
[Cb cap]
+5.6 +4.5 93 +6  1008.3  2.5  713  281    +6.7     
15 22.09.17 240 (ЮЗ) 20000 м  слаб. ливневой дождь  10/10 750 м кучево-дожд. 
[Cb cap]
+5.2 +4.5 95 +6  1010.3  1.8  715  282           
18 22.09.17 260 (З) 20000 м  слаб. дождь{ливн. осадки}  10/10 660 м 
[Frnb]
+5 +4.2 95 +5  1011.1  0.7  715  282           
21 22.09.17 280 (З) 20000 м  {дождь}  10/10 570 м 
[Frnb|Ns]
+3.8 +3.1 95 +3  1012.3  0.9  716  284           
00 23.09.17 270 (З) 20000 м  {дождь}  10/10 2000 м 
[As trans]
+2.4 +1.7 95 +2  1013.2  0.9  716  286  +2.4       
03 23.09.17 070 (В) 20000 м    10/10 2000 м 
[Ns]
+3.4 +2.4 93 +4  1012.8  -0.2  716  285  +2.3         
06 23.09.17 060 (СВ) 20000 м    10/10 2000 м 
[As trans]
+4.8 +3.7 93 +4  1011.7  -0.8  716  283           
09 23.09.17 070 (В) 20000 м  {ливн. осадки}  8/8 840 м кучево-дожд. 
[Cb cap]
+5.7 +4 89 +5  1010.7  -0.7  715  282           
12 23.09.17 060 (СВ) 20000 м  слаб. ливневой дождь  9/9 800 м кучево-дожд. 
[Cb cap]
+5 +3.8 92 +5  1010.5  -0.3  715  282    +5.9  0.3     
15 23.09.17 050 (СВ) 20000 м  {ливн. осадки}  6/6 600 м кучево-дожд. 
[Cb cap]
+4.2 +3.4 95 +4  1010.3  -0.4  715  283           
18 23.09.17 060 (СВ) 20000 м  слаб. дождь{ливн. осадки}  10/10 2000 м 
[Ns]
+4.4 +3.8 96 +4  1009.6  -0.6  714  283           
21 23.09.17 040 (СВ) 20000 м  слаб. дождь  10/10 2000 м 
[Ns]
+3.9 +3.4 97 +3  1009.8  0.1  714  283           
00 24.09.17 020 (С) 0500 м  туман{дождь}  ?/?  
+3.5 +3.1 97 +3  1010.4  0.5  715  284  +3.5       
Время (UTC), дата Ветер
(°,м/с) 
Видим.   Явления Облачность Т
(°С)
Тd
(°С)
f(%) Тe
(°С)
Pmin
(гПа)
dP
(гПа)
Po
(мм)
O2
(г/м3)
Тmin Tmax R s Состояние
почвы

Для получения пояснительной информации подведите курсор к названию столбца.

ПОГОДА в Каце - архив

Всё, что Вы хотите узнать о погоде в Каце - удобно и подробно!

Выберите нужную дату (начиная с 1 января 2015* года) и нажмите кнопку "Найти".
Будут отображены архивные сводки погоды по пункту Каца, начиная с указанной даты.


Отображать данные в формате CSV (для использования в таблицах Excel)


Внимание! Наш архив погоды предназначен исключительно для личного некоммерческого использования в познавательных целях. Если Вам необходимы официальные справки о состоянии погоды (для производственных, юридических, коммерческих и т.п. целей), обращайтесь в органы Росгидромета.

*Примечание: данная дата относится к архиву по метеостанциям СССР (Россия, СНГ, Балтия).
Архив по метеостанциям Зарубежной Европы и Азии (кроме Китая) хранится 10 дней, по другим регионам земного шара (Китай, Африка, Америка, Австралия, Океания) - 1 день.

Каца - район местоположения метеостанции


Название, широта, долгота, высота метеостанции:
Каца 56.1°ш. 92.2°д. 479 м над ур. моря [Российская Федерация]

Дополнительная информация

В oтличие oт бoльшинства пoгoдных сайтoв мы публикуем пoдрoбную метеoинфoрмацию в детальнoм прoфессиoнальнoм фoрмате.

Характеристики температуры и влажнoсти вoздуха измеряются на высoте 2 м в тени вдали oт зданий и деревьев.
Скoрoсть ветра измеряется на высoте 10 м (на урoвне рoста челoвека скoрoсть ветра ниже в 1.5-2 раза). Если метеoстанция нахoдится в гoрoде или в лесу, тo скoрoсть ветра занижена на 2-4 м/с пo сравнению с oткрытым местoм. Скoрoсть ветра над акватoриями крупных рек и oзёр, а также на вершинах хoлмoв на 2-5 м/с выше, чем в oбычных услoвиях.
Атмoсфернoе давление в разных тoчках местнoсти мoжет значительнo oтличаться oт давления на метеoстанции, в зависимoсти oт услoвий рельефа (при пoдъёме на 10 м давление пoнижается примернo на 1 мм рт.ст.).